|
NORAD ID: 35837 Int'l Code: 1993-036ATK
Perigee: 748.4 km
Apogee: 1,503.9 km
Inclination: 73.7 °
Period: 107.7 minutes
Semi major axis: 7497 km
Launch date: June 16, 1993
Source: Commonwealth of Independent States (former USSR) (CIS)
Note: This is SATELLITE DEBRIS
Two Line Element Set (TLE):
1 35837U 93036ATK 13129.21599120 .00002908 00000-0 26917-2 0 2104
2 35837 073.7274 085.7305 0503861 288.1755 066.9154 13.37391508196439
Source:
NASA's NSSDC Master Catalog entry for COSMOS 2251 DEB
|